TimeCET,TemperatureF,Dew PointF,Humidity,Sea Level PressureIn,VisibilityMPH,Wind Direction,Wind SpeedMPH,Gust SpeedMPH,PrecipitationIn,Events,Conditions,WindDirDegrees,DateUTC
12:00 AM,37.4,35.6,93,30.30,6.2,NW,4.6,-,N/A,,Mostly Cloudy,310,2013-01-05 23:00:00
1:00 AM,39.2,37.4,93,30.30,6.2,NW,6.9,-,N/A,,Mostly Cloudy,310,2013-01-06 00:00:00
2:00 AM,39.2,35.6,87,30.30,6.2,NW,6.9,-,N/A,,Mostly Cloudy,310,2013-01-06 01:00:00
3:00 AM,39.2,35.6,87,30.30,6.2,WNW,6.9,-,N/A,,Overcast,300,2013-01-06 02:00:00
4:03 AM,39.2,35.6,87,30.30,6.2,WNW,4.6,-,N/A,,Overcast,300,2013-01-06 03:03:00
5:00 AM,37.4,35.6,93,30.27,6.2,West,2.3,-,N/A,,Overcast,270,2013-01-06 04:00:00
6:00 AM,39.2,37.4,93,30.24,6.2,Variable,1.2,-,N/A,,Light Drizzle,0,2013-01-06 05:00:00
7:00 AM,39.2,37.4,93,30.24,6.2,West,1.2,-,N/A,,Light Drizzle,280,2013-01-06 06:00:00
8:00 AM,41.0,37.4,87,30.24,6.2,WNW,8.1,-,N/A,,Overcast,300,2013-01-06 07:00:00
8:14 AM,39.2,37.4,93,30.24,2.5,WNW,8.1,-,N/A,,Drizzle,290,2013-01-06 07:14:00
8:51 AM,41.0,39.2,93,30.21,3.7,West,5.8,-,N/A,,Drizzle,270,2013-01-06 07:51:00
9:00 AM,41.0,39.2,93,30.21,3.7,West,5.8,-,N/A,,Drizzle,270,2013-01-06 08:00:00
10:00 AM,41.0,41.0,100,30.18,3.7,WNW,13.8,-,N/A,,Drizzle,290,2013-01-06 09:00:00
11:00 AM,42.8,41.0,93,30.18,2.5,WNW,13.8,-,N/A,,Drizzle,300,2013-01-06 10:00:00
12:00 PM,42.8,41.0,93,30.15,5.0,WNW,11.5,-,N/A,Rain,Light Rain,300,2013-01-06 11:00:00
1:00 PM,42.8,39.2,87,30.12,6.2,West,10.4,-,N/A,,Overcast,280,2013-01-06 12:00:00
2:00 PM,42.8,39.2,87,30.09,6.2,WNW,17.3,-,N/A,,Overcast,300,2013-01-06 13:00:00
3:00 PM,42.8,39.2,87,30.09,6.2,WNW,17.3,-,N/A,Rain,Light Rain,300,2013-01-06 14:00:00
4:00 PM,42.8,39.2,87,30.09,6.2,WNW,17.3,-,N/A,,Overcast,290,2013-01-06 15:00:00
5:00 PM,41.0,39.2,93,30.09,6.2,WNW,16.1,-,N/A,Rain,Light Rain,290,2013-01-06 16:00:00
6:00 PM,42.8,39.2,87,30.09,6.2,WNW,15.0,-,N/A,Rain,Light Rain,300,2013-01-06 17:00:00
7:00 PM,42.8,39.2,87,30.09,6.2,WNW,13.8,-,N/A,Rain,Light Rain,290,2013-01-06 18:00:00
8:00 PM,42.8,39.2,87,30.09,6.2,NW,17.3,-,N/A,Rain,Light Rain,310,2013-01-06 19:00:00
9:00 PM,41.0,39.2,93,30.12,6.2,NW,13.8,-,N/A,,Overcast,310,2013-01-06 20:00:00
10:00 PM,41.0,39.2,93,30.12,6.2,NW,12.7,-,N/A,,Overcast,310,2013-01-06 21:00:00
11:00 PM,41.0,39.2,93,30.15,6.2,WNW,13.8,-,N/A,,Overcast,300,2013-01-06 22:00:00